Regional Weather Roundup
Issued by NWS Newport/Morehead, NC

Current Version | Previous Version | Text Only | Print | Product List | Glossary On
Versions: 1 2 3 4 5 6 7 8 9 10 11 12 13 14 15 16 17 18 19 20 21 22 23 24 25 26 27 28 29 30 31 32 33 34 35 36 37 38 39 40 41 42 43 44 45 46 47 48 49 50
000
ASUS42 KMHX 261810
RWRMHX
WEATHER ROUNDUP FOR EASTERN NORTH CAROLINA
NATIONAL WEATHER SERVICE NEWPORT/MOREHEAD CITY NC
100 PM EST MON JAN 26 2015

NOTE: "FAIR" INDICATES FEW OR NO CLOUDS BELOW 12,000 FEET
WITH NO SIGNIFICANT WEATHER AND/OR OBSTRUCTIONS TO VISIBILITY

NCZ015>017-031-032-045>047-102-103-261900-
NORTH COAST

CITY           SKY/WX    TMP DP  RH WIND       PRES   REMARKS
EDENTON        CLOUDY    51  44  77 N8        29.58F
ELIZABETH CITY CLOUDY    51  44  77 N6        29.58F
KITTY HAWK     CLOUDY    50  47  92 N3        29.54F
MANTEO         CLOUDY    50  46  87 NW5       29.54F

$$

NCZ045>047-081-094-103-104-261900-
CENTRAL COAST

CITY           SKY/WX    TMP DP  RH WIND       PRES   REMARKS
FRISCO         CLOUDY    52  43  71 NW3       29.54F
SWANQUARTER    NOT AVBL

$$

NCZ095-097-098-100-101-261900-
SOUTHERN COAST

CITY           SKY/WX    TMP DP  RH WIND       PRES   REMARKS
BEAUFORT       CLOUDY    50  44  80 NW5       29.57F
CEDAR ISLAND   NOT AVBL
JACKSONVILLE   CLOUDY    52  42  69 N5        29.56F
PINEY ISLAND     N/A    N/A N/A N/A MISG      29.55F
WILMINGTON     MOSUNNY   55  43  63 NW8       29.58F


$$

NCZ011>013-027>030-043-044-078>080-089-090>093-098-261900-
COASTAL PLAIN

CITY           SKY/WX    TMP DP  RH WIND       PRES   REMARKS
AHOSKIE        PTSUNNY   51  40  68 NE6       29.60F
CLINTON        DRIZZLE   48  44  87 NW5       29.61F
ELIZABETHTOWN  MOSUNNY   53  41  63 N3        29.60F
GOLDSBORO      MOSUNNY   53  48  82 NW7       29.56F
GREENVILLE     PTSUNNY   52  41  66 N5        29.60F
HAVELOCK       CLOUDY    50  43  77 N5        29.57F
KENANSVILLE    MOSUNNY   53  40  62 NW8       29.60F
KINSTON        MOSUNNY   52  41  66 N5        29.58F
NEW BERN       CLOUDY    52  41  66 NW5       29.57F
RICHLANDS      MOSUNNY   54  43  66 W6        29.57F
ROCKY MOUNT    PTSUNNY   49  43  80 N7        29.59F
WASHINGTON     CLOUDY    48  42  80 N3        29.57F
WHITEVILLE     MOSUNNY   57  41  55 NW3       29.58F

$$

AMZ130-135-150-152-154-156-158-170-250-252-270-ANZ085-086-088-633-658-670-261900-
MARINE OBSERVATIONS

STATION/POSITION TIME  TEMP    WIND        PRES    WAVE   SWELL
                       AIR SEA DIR/SP/G            HT/PER HT/PER
                 (UTC) (F)     (DEG/KT/KT) (MB)    (FT/S) (FT/S)
CHESAPEAKE LIGHT 1700   44     350/ 15/ 16 1003.3
64 E VA BEACH    1800   55 52   70/ 12/ 14  999.2    3/ 4   2/ 8
DUCK             1800   45 44  340/ 10/ 10 1000.2
2 E DUCK         1800      44                N/A     2/ 9
10 NE DUCK       1800      45                N/A     2/ 8
OREGON INLET     1800   50 47  360/  4/  5 1000.2
13E OREGON INLT  1800      47                N/A     2/ 8
HATTERAS CG      1800   51 53  350/  4/  5 1000.7
DIAMOND BUOY     1800   58 70   30/  2/  4 1000.3    3/ 8   3/ 8
17 S OCRACOKE    NOT AVBL
CAPE LOOKOUT     1700   50     330/  2/  3 1001.6
BEAUFORT LAB     1800   49 50  350/  3/  4 1000.1
27 SE WRIGHTSVLE NOT AVBL
5 SE WRIGHTSVLE  1700   51 51  310/  8/  8 1002.8
225 S CAPE HAT   1748   62 72  280/ 33/ 43 1001.4   11/ 7
41 SE CHARLESTON 1800   55 69  270/ 17/ 21 1002.8    5/ 7   2/10

$$



USA.gov is the U.S. government's official web portal to all federal, state and local government web resources and services.